Location: Pace/Milton
(30.6162°N, 87.1503°W)
Time: 08:03:05
(UTC-06:00)

Hubble Space Telescope - Visible Passes

Search period start: 28 November 2021 00:00
Search period end: 08 December 2021 00:00
Orbit: 535 x 538 km, 28.5° (Epoch: 27 November)

Date Brightness Start Highest point End Pass type
(mag) Time Alt. Az. Time Alt. Az. Time Alt. Az.
28 Nov 0.9 04:56:43 40° WSW 04:58:00 65° S 05:02:04 10° E visible
29 Nov 0.8 04:46:19 58° SW 04:46:51 65° S 04:50:55 10° E visible
30 Nov 0.9 04:35:52 64° SSE 04:35:52 64° SSE 04:39:46 10° E visible
01 Dec 1.6 04:25:24 48° SE 04:25:24 48° SE 04:28:36 10° ESE visible
01 Dec 2.0 06:01:45 10° W 06:05:28 33° SSW 06:09:11 10° SE visible
02 Dec 2.3 04:14:56 34° ESE 04:14:56 34° ESE 04:17:25 10° ESE visible
02 Dec 2.2 05:50:44 10° WSW 05:54:16 28° SSW 05:57:48 10° SE visible
03 Dec 2.9 04:04:28 24° ESE 04:04:28 24° ESE 04:06:14 10° ESE visible
03 Dec 2.5 05:39:46 10° WSW 05:43:04 23° SSW 05:46:20 10° SSE visible
04 Dec 3.5 03:54:01 16° ESE 03:54:01 16° ESE 03:55:00 10° ESE visible
04 Dec 2.7 05:29:19 12° WSW 05:31:50 19° SSW 05:34:45 10° SSE visible
05 Dec 3.9 03:43:34 11° SE 03:43:34 11° SE 03:43:44 10° ESE visible
05 Dec 2.9 05:18:53 12° SW 05:20:35 15° SSW 05:23:01 10° SSE visible
06 Dec 3.1 05:08:28 11° SW 05:09:21 12° SSW 05:10:56 10° S visible
